Sarasota, FL

12:38 AM EST on December 10, 2019 (GMT -0500)
Sarasota-bradenton

Weather History for KSRQ - August, 2019

Change the Weather History Date:

Saturday, August 24, 2019

  Actual Average Record
Temperature  
Mean Temperature 85 °F 82 °F  
Max Temperature 93 °F 90 °F 95 °F (2014)
Min Temperature 77 °F 75 °F 66 °F (1957)
Degree Days  
Heating Degree Days 0 0  
Month to date heating degree days 0 0  
Since 1 June heating degree days 0 0  
Since 1 July heating degree days 0 0  
Cooling Degree Days 20 17  
Month to date cooling degree days 441 408  
Year to date cooling degree days 2712 2170  
Since 1 June cooling degree days 1555 1419  
Growing Degree Days 35 (Base 50)    
Moisture  
Dew Point 76 °F    
Average Humidity 77    
Maximum Humidity 94    
Minimum Humidity 56    
Precipitation  
Precipitation T in 0.29 in 4.65 in (1945)
Month to date precipitation 12.42 7.13  
Year to date precipitation 40.95 36.32  
Sea Level Pressure  
Sea Level Pressure 29.93 in    
Wind  
Wind Speed 5 mph ()    
Max Wind Speed 13 mph    
Max Gust Speed 17 mph    
Visibility 10.0 miles    
Events Rain , Thunderstorm    
T = Trace of Precipitation, MM = Missing Value Source: Averaged Metar Reports

Daily Weather History Graph

Daily Weather History Graph

Search for Another Location

Airport or City:

Astronomy

Aug. 24, 2019 Rise Set
Actual Time 7:05 AM EDT 7:59 PM EDT
Civil Twilight 6:41 AM EDT 8:23 PM EDT
Nautical Twilight 6:13 AM EDT 8:51 PM EDT
Astronomical Twilight 5:43 AM EDT 9:20 PM EDT
Moon 1:08 AM EDT (8/24) 2:59 PM EDT (8/24)
Length of Visible Light 13h 41m
Length of Day
12h 53m
Last Quarter, 39% of the Moon is Illuminated
Aug 24
Last Quarter
Aug 30
New
Sep 5
First Quarter
Sep 14
Full
Sep 21
Last Quarter

Hourly Weather History & Observations

Time (EDT) Temp. Heat Index Dew Point Humidity Pressure Visibility Wind Dir Wind Speed Gust Speed Precip Events Conditions
12:53 AM 81.0 °F 87.3 °F 75.9 °F 85% 29.94 in 10.0 mi ENE 6.9 mph - N/A   Clear
1:53 AM 80.1 °F 85.4 °F 75.9 °F 87% 29.94 in 10.0 mi NE 4.6 mph - N/A   Clear
2:53 AM 79.0 °F - 75.9 °F 90% 29.92 in 10.0 mi ENE 3.5 mph - N/A   Clear
3:53 AM 78.1 °F - 75.9 °F 93% 29.91 in 10.0 mi NE 4.6 mph - N/A   Clear
4:53 AM 78.1 °F - 75.9 °F 93% 29.91 in 10.0 mi NE 5.8 mph - N/A   Clear
5:53 AM 78.1 °F - 75.9 °F 93% 29.91 in 10.0 mi ENE 4.6 mph - N/A   Clear
6:53 AM 77.0 °F - 75.0 °F 94% 29.93 in 10.0 mi NNE 4.6 mph - N/A   Clear
7:53 AM 79.0 °F - 75.9 °F 90% 29.94 in 10.0 mi NNE 4.6 mph - N/A   Clear
8:42 AM 82.0 °F 90.2 °F 77.0 °F 85% 29.95 in 10.0 mi NE 4.6 mph - N/A   Partly Cloudy
8:53 AM 81.0 °F 87.9 °F 77.0 °F 88% 29.95 in 10.0 mi NE 6.9 mph - N/A   Scattered Clouds
9:53 AM 84.9 °F 95.3 °F 77.0 °F 77% 29.95 in 10.0 mi North 6.9 mph - N/A   Partly Cloudy
10:53 AM 88.0 °F 100.2 °F 77.0 °F 70% 29.96 in 10.0 mi Variable 6.9 mph - N/A   Scattered Clouds
11:01 AM 88.0 °F 98.5 °F 75.9 °F 67% 29.96 in 10.0 mi NNE 8.1 mph - N/A   Mostly Cloudy
11:53 AM 86.0 °F 96.0 °F 75.9 °F 72% 29.95 in 10.0 mi NNW 10.4 mph - N/A   Mostly Cloudy
12:53 PM 88.0 °F 97.5 °F 75.0 °F 65% 29.94 in 10.0 mi Variable 5.8 mph - N/A   Mostly Cloudy
1:00 PM 90.0 °F 100.2 °F 75.0 °F 61% 29.93 in 10.0 mi NNE 9.2 mph - N/A   Mostly Cloudy
1:53 PM 90.0 °F 100.2 °F 75.0 °F 61% 29.93 in 10.0 mi ENE 8.1 mph - N/A   Mostly Cloudy
2:53 PM 91.9 °F 103.9 °F 75.9 °F 59% 29.91 in 10.0 mi East 5.8 mph - N/A   Mostly Cloudy
3:53 PM 93.0 °F 105.3 °F 75.9 °F 57% 29.89 in 10.0 mi Variable 3.5 mph - N/A   Mostly Cloudy
4:53 PM 90.0 °F 101.3 °F 75.9 °F 63% 29.88 in 10.0 mi North 6.9 mph - N/A   Mostly Cloudy
5:53 PM 91.0 °F 104.2 °F 77.0 °F 63% 29.87 in 10.0 mi NNE 4.6 mph - N/A   Mostly Cloudy
6:53 PM 88.0 °F 101.3 °F 78.1 °F 72% 29.86 in 10.0 mi NW 6.9 mph - N/A   Partly Cloudy
7:53 PM 87.1 °F 99.8 °F 78.1 °F 74% 29.88 in 10.0 mi NW 8.1 mph - N/A   Clear
8:53 PM 86.0 °F 98.3 °F 78.1 °F 77% 29.90 in 10.0 mi NNE 5.8 mph - N/A   Scattered Clouds
9:26 PM 84.0 °F 94.8 °F 78.1 °F 82% 29.91 in 10.0 mi NE 4.6 mph - 0.00 in Rain Light Rain
9:53 PM 84.0 °F 96.0 °F 79.0 °F 85% 29.92 in 10.0 mi Calm Calm - 0.00 in Rain Light Rain
10:11 PM 84.0 °F 97.3 °F 80.1 °F 88% 29.93 in 10.0 mi Calm Calm - 0.00 in Thunderstorm Mostly Cloudy
10:43 PM 84.9 °F 96.6 °F 78.1 °F 80% 29.94 in 10.0 mi East 5.8 mph - 0.00 in   Mostly Cloudy
10:53 PM 84.9 °F 94.1 °F 75.9 °F 74% 29.94 in 10.0 mi East 5.8 mph - 0.00 in   Scattered Clouds
10:58 PM 84.9 °F 94.1 °F 75.9 °F 74% 29.95 in 10.0 mi ENE 5.8 mph - N/A   Mostly Cloudy
11:06 PM 84.9 °F 94.1 °F 75.9 °F 74% 29.95 in 10.0 mi East 5.8 mph - N/A   Mostly Cloudy
11:50 PM 82.4 °F 89.5 °F 75.2 °F 79% 29.95 in 10.0 mi ESE 6.9 mph - N/A   Clear
11:53 PM 82.9 °F 90.8 °F 75.9 °F 79% 29.95 in 10.0 mi East 6.9 mph - N/A   Clear